User: anonymous   Login
Location: Croydon
(51.3762°N, 0.0982°W)
Time: 12:05:59
(UTC+00:00)
Language:

Envisat - Orbit

View from above orbital plane
View from above orbital plane
View from above satellite
View from above satellite

Ground track
Ground track

The orbit data is extracted from the following two-line orbital elements,

1 27386U 02009A   19080.03752976 -.00000009  00000-0  10657-4 0  9997
2 27386  98.1580 105.6104 0001406  98.2249 287.1340 14.37943728893318
Epoch (UTC): 21 March 2019 00:54:02
Eccentricity: 0.0001406
inclination: 98.1580°
perigee height: 764 km
apogee height: 766 km
right ascension of ascending node: 105.6104°
argument of perigee: 98.2249°
revolutions per day: 14.37943728
mean anomaly at epoch: 287.1340°
orbit number at epoch: 89331

The dashed part of the orbit path shows where the satellite is in the earth's shadow,  

DLR